Stations météo

réclame
Mon MeteoGroup
Sevilla/San Pablo, Espagne (8391): Température de l'air & dewpoint: 12.01.2020 14:00:00 - 18.01.2020 14:00:00 (CET)Sevilla/San Pablo, Espagne (8391): Vitesse du vent: 12.01.2020 14:00:00 - 18.01.2020 14:00:00 (CET)Sevilla/San Pablo, Espagne (8391): Direction du vent: 12.01.2020 14:00:00 - 18.01.2020 14:00:00 (CET)Sevilla/San Pablo, Espagne (8391): reduced air pressure: 12.01.2020 14:00:00 - 18.01.2020 14:00:00 (CET)Sevilla/San Pablo, Espagne (8391): visibility: 12.01.2020 14:00:00 - 18.01.2020 14:00:00 (CET)
Date & Time tt [°C] td [°C] ff [km/h] ff [knt] dd ppp [hPa] vv [km]
18.01.2020 14:00:00 12,7 12,1 11 6 NW 1029,0 -
18.01.2020 13:00:00 13,1 12,5 15 8 S 1030,3 5
18.01.2020 12:00:00 11,9 11,1 15 8 SSE 1031,6 -
18.01.2020 11:00:00 11,1 10,2 15 8 SSE 1031,9 -
18.01.2020 10:00:00 10,6 10,0 4 2 SE 1032,1 6
18.01.2020 09:00:00 9,8 9,0 5 3 SE 1031,5 -
18.01.2020 08:00:00 9,8 8,9 0 0 N 1031,3 -
18.01.2020 07:00:00 9,5 8,6 4 2 N 1030,7 8
18.01.2020 06:00:00 9,3 8,4 0 0 N 1030,5 -
18.01.2020 05:00:00 9,1 8,2 2 1 W 1031,2 -
18.01.2020 04:00:00 8,7 7,8 2 1 SSE 1031,5 7
18.01.2020 03:00:00 8,9 8,1 0 0 N 1031,7 -
18.01.2020 02:00:00 8,5 7,7 4 2 S 1032,3 -
18.01.2020 01:00:00 9,1 8,0 0 0 N 1032,7 12
18.01.2020 00:00:00 10,0 8,8 0 0 N 1032,7 -
17.01.2020 23:00:00 10,6 9,4 5 3 WNW 1032,7 -
17.01.2020 22:00:00 11,6 10,0 2 1 NNE 1032,9 30
17.01.2020 21:00:00 12,2 10,3 4 2 NNE 1032,7 -
17.01.2020 20:00:00 13,4 10,9 9 5 NE 1032,0 -
17.01.2020 19:00:00 14,9 11,3 5 3 NNE 1031,9 30
17.01.2020 18:00:00 17,5 11,5 0 0 N 1031,7 -
17.01.2020 17:00:00 17,7 11,7 4 2 W 1031,5 -
17.01.2020 16:00:00 17,4 11,9 2 1 N 1031,3 30
17.01.2020 15:00:00 16,7 11,8 5 3 SE 1031,8 -
17.01.2020 14:00:00 15,3 11,6 8 4 ESE 1032,4 -
17.01.2020 13:00:00 14,0 11,3 9 5 NNE 1033,4 20
17.01.2020 12:00:00 13,6 11,1 8 4 NE 1034,0 -
17.01.2020 11:00:00 12,8 11,0 5 3 NNE 1033,7 -
17.01.2020 10:00:00 11,3 9,9 4 2 N 1033,2 12
17.01.2020 09:00:00 11,1 9,8 8 4 NNE 1032,5 -
17.01.2020 08:00:00 11,2 9,6 5 3 NNE 1031,7 -
17.01.2020 07:00:00 11,1 9,0 5 3 ENE 1030,9 14
17.01.2020 06:00:00 10,7 9,0 5 3 E 1030,5 -
17.01.2020 05:00:00 10,2 8,5 8 4 SE 1030,4 -
17.01.2020 04:00:00 9,8 8,1 8 4 ESE 1030,2 20
17.01.2020 03:00:00 9,8 7,9 4 2 E 1030,2 -
17.01.2020 02:00:00 10,0 7,8 0 0 N 1030,1 -
17.01.2020 01:00:00 11,0 7,7 4 2 WSW 1030,6 20
17.01.2020 00:00:00 12,1 8,0 11 6 S 1030,3 -
16.01.2020 23:00:00 11,4 8,6 9 5 S 1029,8 -
16.01.2020 22:00:00 11,7 9,4 8 4 S 1029,3 30
16.01.2020 21:00:00 13,6 10,2 9 5 SSW 1029,0 -
16.01.2020 20:00:00 14,5 9,1 13 7 SW 1028,7 -
16.01.2020 19:00:00 15,3 6,1 9 5 SW 1027,9 30
16.01.2020 18:00:00 17,3 5,2 11 6 SW 1027,4 -
16.01.2020 17:00:00 18,5 3,1 15 8 SW 1027,4 -
16.01.2020 16:00:00 18,6 2,1 11 6 SW 1027,2 30
16.01.2020 15:00:00 18,0 3,8 8 4 WSW 1027,6 -
16.01.2020 14:00:00 17,6 3,7 4 2 SSE 1028,1 -
16.01.2020 13:00:00 15,5 7,0 2 1 WSW 1029,0 30
16.01.2020 12:00:00 13,2 6,6 5 3 NE 1029,4 -
16.01.2020 11:00:00 10,5 5,8 9 5 NE 1029,7 -
16.01.2020 10:00:00 8,5 5,3 8 4 NE 1029,3 15
16.01.2020 09:00:00 7,2 5,0 11 6 NE 1028,6 -
16.01.2020 08:00:00 7,6 5,4 11 6 NE 1028,1 -
16.01.2020 07:00:00 7,9 6,2 9 5 ENE 1027,9 9
16.01.2020 06:00:00 7,6 5,9 5 3 NNE 1027,7 -
16.01.2020 05:00:00 8,4 7,3 4 2 NNE 1027,7 -
16.01.2020 04:00:00 8,7 7,5 4 2 N 1028,0 15
16.01.2020 03:00:00 8,2 6,9 9 5 SE 1027,9 -
16.01.2020 02:00:00 8,9 7,8 4 2 ESE 1028,1 -
16.01.2020 01:00:00 9,3 8,2 11 6 ESE 1028,3 12
16.01.2020 00:00:00 9,8 8,4 8 4 NE 1028,5 -
15.01.2020 23:00:00 10,4 8,8 5 3 S 1028,0 -
15.01.2020 22:00:00 10,8 9,0 9 5 SSE 1027,8 15
15.01.2020 21:00:00 11,8 9,9 8 4 SE 1027,8 -
15.01.2020 20:00:00 13,8 10,6 5 3 S 1027,3 -
15.01.2020 19:00:00 16,0 11,2 5 3 SSW 1027,0 30
15.01.2020 18:00:00 17,4 11,2 13 7 SW 1026,6 -
15.01.2020 17:00:00 18,3 10,4 16 9 SW 1026,2 -
15.01.2020 16:00:00 17,9 10,8 9 5 S 1025,9 30
15.01.2020 15:00:00 17,5 10,3 4 2 E 1026,0 -
15.01.2020 14:00:00 15,9 9,3 5 3 NNW 1026,6 -
15.01.2020 13:00:00 14,6 8,6 4 2 NE 1027,2 30
15.01.2020 12:00:00 11,9 7,5 2 1 NNE 1027,8 -
15.01.2020 11:00:00 10,1 6,2 2 1 WNW 1027,4 -
15.01.2020 10:00:00 7,4 5,0 4 2 ENE 1026,7 12
15.01.2020 09:00:00 5,3 3,9 11 6 ENE 1026,3 -
15.01.2020 08:00:00 5,4 4,0 9 5 NE 1026,0 -
15.01.2020 07:00:00 5,4 4,2 0 0 N 1025,3 8
15.01.2020 06:00:00 5,8 4,6 4 2 E 1024,7 -
15.01.2020 05:00:00 5,9 4,5 2 1 N 1024,8 -
15.01.2020 04:00:00 6,0 4,8 4 2 NE 1024,9 7
15.01.2020 03:00:00 6,5 5,0 0 0 N 1025,0 -
15.01.2020 02:00:00 7,1 5,4 4 2 NE 1025,0 -
15.01.2020 01:00:00 8,0 5,8 5 3 NNE 1025,3 20
15.01.2020 00:00:00 8,3 5,8 9 5 SE 1025,5 -
14.01.2020 23:00:00 8,1 5,6 9 5 SE 1025,3 -
14.01.2020 22:00:00 8,7 6,1 8 4 ESE 1025,1 20
14.01.2020 21:00:00 9,9 6,4 0 0 N 1025,1 -
14.01.2020 20:00:00 9,6 6,3 9 5 ESE 1024,9 -
14.01.2020 19:00:00 11,8 6,3 5 3 SSE 1024,4 20
14.01.2020 18:00:00 14,5 5,2 8 4 WSW 1024,3 -
14.01.2020 17:00:00 15,2 6,3 4 2 SW 1023,9 -
14.01.2020 16:00:00 14,8 6,1 8 4 SSW 1023,8 20
14.01.2020 15:00:00 14,9 7,2 8 4 W 1023,9 -
14.01.2020 14:00:00 13,7 7,1 4 2 NNW 1024,6 -
14.01.2020 13:00:00 12,1 6,4 0 0 N 1025,8 15
14.01.2020 12:00:00 10,1 5,7 4 2 NNE 1026,4 -
14.01.2020 11:00:00 8,2 5,0 9 5 NE 1026,2 -
14.01.2020 10:00:00 5,8 4,2 13 7 NE 1025,5 10
14.01.2020 09:00:00 5,2 4,0 11 6 NNE 1025,1 -
14.01.2020 08:00:00 5,8 4,4 4 2 NNE 1025,0 -
14.01.2020 07:00:00 5,4 4,2 8 4 N 1024,6 20
14.01.2020 06:00:00 5,6 4,2 9 5 NNE 1024,3 -
14.01.2020 05:00:00 5,8 4,4 8 4 N 1024,4 -
14.01.2020 04:00:00 6,0 4,4 5 3 ENE 1024,7 20
14.01.2020 03:00:00 5,7 4,3 5 3 E 1025,0 -
14.01.2020 02:00:00 5,4 3,8 5 3 NW 1025,3 -
14.01.2020 01:00:00 6,2 4,4 0 0 N 1025,5 20
14.01.2020 00:00:00 6,4 4,2 8 4 SE 1025,6 -
13.01.2020 23:00:00 7,8 5,4 2 1 N 1025,7 -
13.01.2020 22:00:00 7,5 5,3 0 0 N 1025,4 30
13.01.2020 21:00:00 8,6 5,5 0 0 N 1025,7 -
13.01.2020 20:00:00 9,2 5,8 13 7 S 1025,8 -
13.01.2020 19:00:00 11,7 6,0 5 3 SSW 1025,8 30
13.01.2020 18:00:00 14,3 6,3 8 4 NNW 1025,8 -
13.01.2020 17:00:00 15,2 5,6 4 2 WNW 1025,6 -
13.01.2020 16:00:00 15,4 5,7 4 2 NW 1025,6 30
13.01.2020 15:00:00 14,7 5,7 4 2 WNW 1026,0 -
13.01.2020 14:00:00 14,3 5,6 5 3 SE 1026,9 -
13.01.2020 13:00:00 12,1 6,1 4 2 NNE 1028,3 30
13.01.2020 12:00:00 9,9 5,3 11 6 NE 1029,2 -
13.01.2020 11:00:00 7,6 4,5 11 6 NNE 1029,1 -
13.01.2020 10:00:00 5,2 3,4 11 6 NNE 1028,4 30
13.01.2020 09:00:00 3,8 2,3 9 5 NNE 1028,3 -
13.01.2020 08:00:00 3,8 2,3 8 4 NNE 1027,9 -
13.01.2020 07:00:00 3,2 2,0 11 6 NE 1027,8 30
13.01.2020 06:00:00 3,6 2,3 9 5 NNE 1027,6 -
13.01.2020 05:00:00 4,2 2,7 5 3 NE 1028,0 -
13.01.2020 04:00:00 5,0 3,0 4 2 NE 1028,4 30
13.01.2020 03:00:00 4,8 3,4 9 5 NE 1028,5 -
13.01.2020 02:00:00 5,2 3,2 5 3 NNW 1029,0 -
13.01.2020 01:00:00 6,7 3,8 5 3 W 1029,5 30
13.01.2020 00:00:00 7,8 4,7 13 7 ENE 1029,8 -
12.01.2020 23:00:00 8,2 4,6 8 4 ENE 1029,9 -
12.01.2020 22:00:00 7,9 4,7 5 3 NE 1029,7 30
12.01.2020 21:00:00 8,6 4,6 2 1 NNE 1029,6 -
12.01.2020 20:00:00 10,0 5,3 0 0 N 1029,5 -
12.01.2020 19:00:00 12,0 5,8 5 3 E 1029,2 30
12.01.2020 18:00:00 16,4 3,7 4 2 ESE 1028,8 -
12.01.2020 17:00:00 16,5 2,1 8 4 ENE 1028,9 -
12.01.2020 16:00:00 16,3 5,2 4 2 ENE 1028,9 30
12.01.2020 15:00:00 15,4 6,3 8 4 NNE 1029,4 -
12.01.2020 14:00:00 14,3 6,9 8 4 NE 1030,4 -

tt = Température de l'air
td = dewpoint
ff = Vitesse du vent
dd = Direction du vent
ppp = reduced air pressure
vv = visibility

stations d'obs. à proximité